Tracking 19800 objects as of 23-Jul-2019
HD Live streaming from Space Station
objects crossing your sky now

APRIZESAT 5

Track APRIZESAT 5 now!
10-day predictions
APRIZESAT 5 is classified as:


NORAD ID: 37792
Int'l Code: 2011-044E
Perigee: 609.7 km
Apogee: 692.8 km
Inclination: 98.4 °
Period: 97.6 minutes
Semi major axis: 7022 km
RCS: 0.107 m2 (medium)
Launch date: August 17, 2011
Source: United States (US)
Launch site: Orenburg, Russia (OREN)
aabbcc
Your satellite tracking list
Your tracking list is empty




NASA's NSSDC Master Catalog

Two Line Element Set (TLE):
1 37792U 11044E   19204.06677567  .00000012  00000-0  10163-4 0  9996
2 37792  98.4174  24.6366 0059177 135.4316 225.1673 14.75327206426782
Source of the keplerian elements: AFSPC